Maun, Botswana

5:23 PM CAT on April 24, 2018 (GMT +0200)
Maun

Weather History for FBMN - May, 2012

Change the Weather History Date:

Thursday, May 17, 2012

  Actual Average Record
Temperature  
Mean Temperature 70 °F -  
Max Temperature 86 °F 79 °F 91 °F (2005)
Min Temperature 54 °F 50 °F 50 °F (2000)
Cooling Degree Days 5    
Growing Degree Days 20 (Base 50)    
Moisture  
Dew Point 42 °F    
Average Humidity 36    
Maximum Humidity 52    
Minimum Humidity 25    
Precipitation  
Precipitation 0.00 in - - ()
Sea Level Pressure  
Sea Level Pressure 30.13 in    
Wind  
Wind Speed 12 mph ()    
Max Wind Speed 79 mph    
Max Gust Speed -    
Visibility 4.0 miles    
Events      
Averages and records for this station are not official NWS values.
T = Trace of Precipitation, MM = Missing Value Source: Averaged Metar Reports

Daily Weather History Graph

Daily Weather History Graph

Search for Another Location

Airport or City:

Astronomy

May. 17, 2012 Rise Set
Actual Time 6:48 AM CAT 5:56 PM CAT
Civil Twilight 6:25 AM CAT 6:20 PM CAT
Nautical Twilight 5:58 AM CAT 6:47 PM CAT
Astronomical Twilight 5:31 AM CAT 7:13 PM CAT
Moon 3:44 AM CAT (5/17) 3:34 PM CAT (5/17)
Length of Visible Light 11h 55m
Length of Day
11h 08m
Waning Crescent, 11% of the Moon is Illuminated
May 17
Waning Crescent
May 21
New
May 28
First Quarter
Jun 4
Full
Jun 11
Last Quarter

Hourly Weather History & Observations

Time (CAT) Temp. Dew Point Humidity Pressure Visibility Wind Dir Wind Speed Gust Speed Precip Events Conditions
12:00 AM 60.8 °F 41.0 °F 48% 30.15 in - SSE 5.8 mph - N/A   Clear
2:00 AM - 37 °F %  in 0 mi North 79.4 mph - -  
2:00 AM 62.6 °F 37.4 °F 39% 30.15 in - SSE 9.2 mph - N/A   Clear
3:00 AM 62.6 °F 35.6 °F 37% 30.15 in - South 10.4 mph - N/A   Clear
4:00 AM 57.2 °F 35.6 °F 44% 30.15 in - SSE 8.1 mph - N/A   Clear
5:00 AM 59.0 °F 33.8 °F 39% 30.15 in - SSE 8.1 mph - N/A   Clear
6:00 AM 57.2 °F 32.0 °F 38% 30.15 in - SSE 8.1 mph - N/A   Clear
7:00 AM 57.2 °F 32.0 °F 38% 30.18 in - SSE 13.8 mph - N/A   Clear
8:00 AM 60 °F 35 °F 27%  in 6 mi ESE 10.4 mph - -  
8:00 AM 60.8 °F 35.6 °F 39% 30.21 in - ESE 10.4 mph - N/A   Clear
9:00 AM 64.4 °F 32.0 °F 30% 30.21 in - East 5.8 mph - N/A   Clear
10:00 AM 71.6 °F 44.6 °F 38% 30.21 in - NE 9.2 mph - N/A   Clear
11:00 AM 78.8 °F 48.2 °F 34% 30.18 in - NE 9.2 mph - N/A   Clear
12:00 PM 80.6 °F 48.2 °F 32% 30.15 in - East 8.1 mph - N/A   Clear
1:00 PM 84.2 °F 48.2 °F 29% 30.12 in - East 4.6 mph - N/A   Clear
2:00 PM 86.0 °F 46.4 °F 25% 30.09 in - SSE 3.5 mph - N/A   Clear
3:00 PM 86.0 °F 46.4 °F 25% 30.06 in - Variable 2.3 mph - N/A   Clear
4:00 PM 86.0 °F 51.8 °F 31% 30.06 in - East 3.5 mph - N/A   Clear
5:00 PM 82.4 °F 48.2 °F 30% 30.06 in - NW 4.6 mph - N/A   Clear
6:00 PM 80.6 °F 46.4 °F 30% 30.06 in - WNW 3.5 mph - N/A   Clear
8:00 PM 72 °F 47 °F 30%  in 6 mi West 4.6 mph - -  
8:00 PM 71.6 °F 46.4 °F 41% 30.09 in - West 4.6 mph - N/A   Clear
9:00 PM 69.8 °F 46.4 °F 43% 30.12 in - SW 4.6 mph - N/A   Clear
10:00 PM 66.2 °F 46.4 °F 49% 30.12 in - NE 3.5 mph - N/A   Clear
11:00 PM 62.6 °F 44.6 °F 52% 30.12 in - Variable 1.2 mph - N/A   Clear